Regional Weather Roundup
Issued by NWS

Home | Current Version | Previous Version | Text Only | Print | Product List | Glossary Off
Versions: 1 2 3 4 5 6 7 8 9 10 11 12 13 14 15 16 17 18 19 20 21 22 23 24 25 26 27 28 29 30 31 32 33 34 35 36 37 38 39 40 41 42 43 44 45 46 47 48 49 50

000
ASUS45 KPSR 261410
RWRAZ

ARIZONA REGIONAL HOURLY WEATHER ROUNDUP
NATIONAL WEATHER SERVICE TUCSON AZ
700 AM MST FRI MAY 26 2017

NOTE: FAIR INDICATES FEW OR NO CLOUDS BELOW 12,000 FEET WITH NO
SIGNIFICANT WEATHER AND/OR OBSTRUCTIONS TO VISIBILITY.

AZZ001>003-036-261500-
NORTHWEST ARIZONA

CITY           SKY/WX    TMP DP  RH WIND       PRES   REMARKS
BULLHEAD CITY  SUNNY     75  34  22 S17G23    29.71R
KINGMAN        SUNNY     68  32  26 SE12      29.83R
$$

AZZ004>008-015-016-018-261500-
NORTH CENTRAL ARIZONA

CITY           SKY/WX    TMP DP  RH WIND       PRES   REMARKS
GRAND CANYON   SUNNY     53  24  32 SW8       30.00R
WILLIAMS       SUNNY     55  21  26 SE16      30.00S
PRESCOTT       SUNNY     61  24  24 SE9       29.95R
FLAGSTAFF      SUNNY     52  21  29 SW20G31   30.01F
PAYSON         SUNNY     63  19  19 S8G15     30.03R
PAGE           SUNNY     70  23  17 CALM      29.84R
$$

AZZ009>014-017-261500-
NORTHEAST ARIZONA

CITY           SKY/WX    TMP DP  RH WIND       PRES   REMARKS
WINSLOW        SUNNY     58  20  22 E9        29.95R
SAINT JOHNS    SUNNY     66  16  14 VRB5      30.02R
WINDOW ROCK    SUNNY     58  19  22 S7        30.07R
SHOW LOW       SUNNY     57  18  21 S31G38    30.02F
$$

AZZ023-261500-
GREATER PHOENIX AREA

CITY           SKY/WX    TMP DP  RH WIND       PRES   REMARKS
PHOENIX        MOSUNNY   76  28  17 S8        29.81R
BUCKEYE        SUNNY     72  36  26 SE3       29.82R
GLENDALE       SUNNY     75  36  23 CALM      29.83R
LUKE AFB       SUNNY     74  35  24 CALM      29.81R
DEER VALLEY    SUNNY     74  31  20 E6        29.83R
SCOTTSDALE     SUNNY     73  32  22 SE3       29.85R
MESA-FALCON    SUNNY     75  30  19 S7        29.84
MESA-GATEWAY   SUNNY     72  34  25 SE10      29.84R
CHANDLER       SUNNY     75  28  17 SE9       29.83R
$$

AZZ027-028-261500-
SOUTHWEST MARICOPA COUNTY AND PINAL COUNTY

CITY           SKY/WX    TMP DP  RH WIND       PRES   REMARKS
CASA GRANDE    SUNNY     74  29  19 SE7       29.85R
$$

AZZ503-504-507>509-261500-
SOUTHEAST ARIZONA

CITY           SKY/WX    TMP DP  RH WIND       PRES   REMARKS
TUCSON         SUNNY     75  29  18 E6        29.94R
DAVIS-MONTHAN  SUNNY     74  29  18 NE6       29.93R
RYAN FIELD     SUNNY     75  32  20 SE10      29.92R
NOGALES        SUNNY     70  33  25 S9        30.01R
SIERRA VISTA   SUNNY     68  24  18 SE10      30.05S
DOUGLAS        SUNNY     68  29  23 S15       30.04S
SAFFORD        SUNNY     74  16  11 NE6       29.93R
$$

AZZ020-021-025-026-031-261500-
SOUTHWEST ARIZONA

CITY           SKY/WX    TMP DP  RH WIND       PRES   REMARKS
YUMA           MOSUNNY   69  40  34 NE3       29.79R
$$

CAZ031-033-041-043-047-048-061-261500-
SOUTHERN CALIFORNIA

CITY           SKY/WX    TMP DP  RH WIND       PRES   REMARKS
DOWNTOWN L.A.  CLOUDY    63  54  72 W3        29.95R
L.A. AIRPORT   CLOUDY    62  53  72 CALM      29.95R
SAN DIEGO      CLOUDY    64  51  62 S5        29.98R
BURBANK        CLOUDY    59  50  72 S5        29.95R
ONTARIO        CLOUDY    59  47  64 SW6       29.96R
RIVERSIDE      CLOUDY    59  49  69 W5        29.96R
PALM SPRINGS   SUNNY     68  44  42 E3        29.78R
EL CENTRO NAS  MOSUNNY   68  41  37 W17         N/A
IMPERIAL       LGT RAIN  66  44  45 W12       29.76R
BLYTHE         SUNNY     67  46  47 S10       29.76R
NEEDLES        SUNNY     78  28  16 S5        29.74R
$$

NVZ020-UTZ003-261500-
SOUTHERN NEVADA-UTAH

CITY           SKY/WX    TMP DP  RH WIND       PRES   REMARKS
LAS VEGAS      SUNNY     73  27  18 SW10      29.69R
SALT LAKE CITY CLOUDY    57  39  51 NW13      29.77R
$$

NMZ009-TXZ055-261500-
NEW MEXICO-WEST TEXAS

CITY           SKY/WX    TMP DP  RH WIND       PRES   REMARKS
ALBUQUERQUE    MOSUNNY   63  13  14 S6        30.06R
EL PASO        PTSUNNY   76  33  21 W17G23    30.01R
$$


........................KEY........................
SKY/WX - SKY CONDITION/WEATHER
TMP    - TEMPERATURE IN FAHRENHEIT
DP     - DEWPOINT IN FAHRENHEIT
RH     - RELATIVE HUMIDITY IN PERCENT
WIND   - DIRECTION AND SPEED IN MILES PER HOUR (MPH)
VRB    - VARIABLE WIND DIRECTION
PRES   - MEAN SEA LEVEL PRESSURE IN INCHES OF MERCURY
         F - FALLING PRESSURE   R - RISING PRESSURE
         S - STEADY PRESSURE
VSB    - VISIBILITY IN MILES
HX     - HEAT INDEX IN FAHRENHEIT
WCI    - WIND CHILL INDEX IN FAHRENHEIT
TC     - TEMPERATURE IN CELSIUS WHICH IS ALSO KNOWN AS
         TEMPERATURE IN CENTIGRADE
AFB    - AIR FORCE BASE
         LUKE AFB IS LUKE AIR FORCE BASE
         DAVIS-MONTHAN IS DAVIS-MONTHAN AIR FORCE BASE
NAS    - NAVAL AIR STATION
         EL CENTRO NAS IS EL CENTRO NAVAL AIR STATION
N/A    - NOT AVAILABLE




USA.gov is the U.S. government's official web portal to all federal, state and local government web resources and services.